This demonstration page uses our WeatherBlox Daily Observations layout. Learn more.

Left ArrowRight Arrow

53.62937, 11.41316

Hourly Observations for April 17, 2022

Temp ( °F °C ) Dew Point ( °F °C ) Humidity (%) Winds ( mph kmh ) Pressure ( in mb ) Visibility ( mi km ) Precip ( " mm )
12:20 am 00:20 Mostly Clear 36 2 28 -2 75 75 E 1 2 30.57 1035 30 48 N/A
12:50 am 00:50 Mostly Clear 36 2 28 -2 75 75 Calm 30.57 1035 30 48 N/A
1:20 am 01:20 Mostly Clear 34 1 28 -2 81 81 ESE 2 4 30.54 1034 30 48 N/A
1:50 am 01:50 Mostly Clear 32 0 28 -2 87 87 Calm 30.54 1034 30 48 N/A
2:20 am 02:20 Mostly Clear 32 0 28 -2 87 87 Calm 30.54 1034 30 48 N/A
2:50 am 02:50 Mostly Clear 32 0 28 -2 87 87 Calm 30.54 1034 30 48 N/A
3:20 am 03:20 Mostly Clear 30 -1 28 -2 93 93 Calm 30.54 1034 30 48 N/A
3:50 am 03:50 Mostly Clear 32 0 28 -2 87 87 SSE 1 2 30.51 1033 30 48 N/A
4:20 am 04:20 Mostly Clear 30 -1 28 -2 93 93 Calm 30.51 1033 30 48 N/A
4:50 am 04:50 Mostly Clear 28 -2 27 -3 93 93 Calm 30.51 1033 30 48 N/A
5:20 am 05:20 Mostly Clear 28 -2 27 -3 93 93 NE 1 2 30.51 1033 30 48 N/A
5:50 am 05:50 Mostly Clear 28 -2 27 -3 93 93 VRB 1 2 30.51 1033 30 48 N/A
6:20 am 06:20 Mostly Sunny 28 -2 27 -3 93 93 Calm 30.51 1033 30 48 N/A
6:50 am 06:50 Mostly Sunny 28 -2 28 -2 100 100 ESE 1 2 30.51 1033 4 7 N/A
7:20 am 07:20 Mostly Sunny 30 -1 30 -1 100 100 SE 1 2 30.51 1033 30 48 N/A
7:50 am 07:50 Mostly Sunny 36 2 32 0 87 87 SE 1 2 30.51 1033 7 11 N/A
8:20 am 08:20 Mostly Sunny 39 4 36 2 87 87 Calm 30.51 1033 7 11 N/A
8:50 am 08:50 Mostly Sunny 45 7 36 2 71 71 Calm 30.51 1033 7 11 N/A
9:20 am 09:20 Mostly Sunny 48 9 32 0 54 54 VRB 2 4 30.48 1032 7 11 N/A
9:50 am 09:50 Mostly Sunny 50 10 30 -1 47 47 VRB 5 7 30.48 1032 7 11 N/A
10:20 am 10:20 Mostly Sunny 52 11 30 -1 44 44 VRB 3 6 30.48 1032 7 11 N/A
10:50 am 10:50 Mostly Sunny 52 11 28 -2 41 41 VRB 5 7 30.48 1032 7 11 N/A
11:20 am 11:20 Mostly Sunny 54 12 28 -2 38 38 S 6 9 30.48 1032 7 11 N/A
11:50 am 11:50 Mostly Sunny 54 12 28 -2 38 38 SE 6 9 30.45 1031 7 11 N/A
12:20 pm 12:20 Mostly Sunny 55 13 32 0 41 41 SE 6 9 30.45 1031 7 11 N/A
12:50 pm 12:50 Mostly Sunny 57 14 34 1 41 41 VRB 5 7 30.42 1030 7 11 N/A
1:20 pm 13:20 Mostly Sunny 57 14 28 -2 33 33 VRB 3 6 30.42 1030 7 11 N/A
1:50 pm 13:50 Mostly Sunny 57 14 30 -1 36 36 VRB 5 7 30.42 1030 7 11 N/A
2:20 pm 14:20 Mostly Sunny 57 14 27 -3 31 31 E 6 9 30.42 1030 7 11 N/A
2:50 pm 14:50 Mostly Sunny 57 14 27 -3 31 31 SE 6 9 30.42 1030 7 11 N/A
3:20 pm 15:20 Mostly Sunny 57 14 28 -2 33 33 E 6 9 30.39 1029 7 11 N/A
3:50 pm 15:50 Mostly Sunny 57 14 28 -2 33 33 VRB 3 6 30.39 1029 7 11 N/A
4:20 pm 16:20 Mostly Sunny 57 14 27 -3 31 31 VRB 5 7 30.36 1028 7 11 N/A
4:50 pm 16:50 Mostly Sunny 57 14 28 -2 33 33 VRB 5 7 30.36 1028 7 11 N/A
5:20 pm 17:20 Mostly Sunny 57 14 28 -2 33 33 E 5 7 30.33 1027 7 11 N/A
5:50 pm 17:50 Mostly Sunny 57 14 28 -2 33 33 E 6 9 30.33 1027 7 11 N/A
6:20 pm 18:20 Mostly Sunny 57 14 27 -3 31 31 E 5 7 30.33 1027 7 11 N/A
6:50 pm 18:50 Mostly Sunny 57 14 28 -2 33 33 E 6 9 30.30 1026 7 11 N/A
7:20 pm 19:20 Mostly Sunny 54 12 32 0 44 44 ENE 10 17 30.30 1026 7 11 N/A
8:20 pm 20:20 Mostly Sunny 48 9 30 -1 50 50 ENE 7 11 30.30 1026 7 11 N/A
8:50 pm 20:50 Mostly Clear 48 9 28 -2 46 46 E 7 11 30.30 1026 7 11 N/A
9:20 pm 21:20 Mostly Clear 45 7 28 -2 53 53 E 8 13 30.30 1026 30 48 N/A
9:50 pm 21:50 Mostly Clear 43 6 27 -3 53 53 ENE 6 9 30.30 1026 30 48 N/A
10:20 pm 22:20 Mostly Clear 45 7 27 -3 49 49 ENE 3 6 30.30 1026 30 48 N/A
10:50 pm 22:50 Mostly Clear 43 6 25 -4 49 49 ENE 1 2 30.30 1026 30 48 N/A
11:20 pm 23:20 Mostly Clear 41 5 27 -3 57 57 Calm 30.27 1025 30 48 N/A
11:50 pm 23:50 Mostly Clear 39 4 25 -4 56 56 Calm 30.27 1025 30 48 N/A

Powered by AerisWeather